Location: 相模原市立博物館
(35.5593°N, 139.3931°E)
Time: 22:02:17
(UTC+09:00)

Envisat - Pass Details

Date: 01 November 2021
Orbit: 764 x 766 km, 98.2° (Epoch: 07 December)

Event Time Altitude Azimuth Distance (km) Brightness Sun altitude
Rises 03:23:15 0° 37° (NE) 3,234 6.8 -33.1°
Reaches altitude 10° 03:27:04 10° 67° (ENE) 2,302 6.2 -32.4°
Maximum altitude 03:29:09 12° 91° (E) 2,130 6.1 -31.9°
Drops below altitude 10° 03:31:14 10° 116° (ESE) 2,295 6.1 -31.5°
Sets 03:35:00 0° 145° (SE) 3,214 6.6 -30.7°
